Simultaneous Nadir Overpasses (SNOs) Predictions

Prediction of SNOs between METOP-C and LANDSAT-8 Satellite Orbit:

Table of predicted SNOs for the next 14.0 days since TLE Epoch: 5/24/2025
Index Date (METOP-C) Time (METOP-C) Lat,Lon (METOP-C) SZA (METOP-C ) Date (LANDSAT-8) Time (LANDSAT-8) Lat,Lon (LANDSAT-8) SZA (LANDSAT-8 ) Distance(km) Time Diff (sec)
1 05/25/2025 23:40:24 -81.09, 44.12 117.87 05/25/2025 23:41:12 -81.08, 44.07 117.86 1.01 48
2 05/26/2025 00:31:03 81.12,-147.77 62.23 05/26/2025 00:30:37 81.12,-147.82 62.21 0.81 26
3 05/28/2025 19:14:49 -81.08, 110.25 118.38 05/28/2025 19:15:28 -81.08, 110.40 118.35 2.73 39
4 05/28/2025 20:05:28 81.10, -81.67 61.72 05/28/2025 20:04:53 81.11, -81.52 61.72 2.65 35
5 05/31/2025 14:49:12 -81.09, 177.06 118.75 05/31/2025 14:49:43 -81.09, 176.98 118.75 1.56 31
6 05/31/2025 15:39:51 81.12, -14.87 61.35 05/31/2025 15:39:08 81.11, -14.97 61.32 1.77 43
7 06/03/2025 10:23:35 -81.09,-116.55 119.12 06/03/2025 10:23:57 -81.09,-116.56 119.12 0.58 22
8 06/03/2025 11:14:14 81.12, 51.50 60.97 06/03/2025 11:13:22 81.11, 51.47 60.94 0.82 52
9 06/06/2025 05:57:58 -81.10, -49.84 119.40 06/06/2025 05:58:11 -81.10, -49.87 119.40 0.48 13



Historial Predications of SNOs between METOP-C and LANDSAT-8
